Time,TemperatureF,DewpointF,PressureIn,WindDirection,WindDirectionDegrees,WindSpeedMPH,WindSpeedGustMPH,Humidity,HourlyPrecipIn,Conditions,Clouds,dailyrainin,SolarRadiationWatts/m^2,SoftwareType,DateUTC
2013-11-24 00:00:00,22.1,19.4,30.40,North,349,0.0,-999.0,89,0.00,,,1.00,0,WeatherHawk,2013-11-24 08:00:00,
2013-11-24 00:05:00,22.5,19.7,30.40,North,9,0.0,-999.0,89,0.00,,,0.00,0,WeatherHawk,2013-11-24 08:05:00,
2013-11-24 00:10:00,22.1,19.1,30.40,NNW,343,0.0,-999.0,88,0.00,,,0.00,0,WeatherHawk,2013-11-24 08:10:00,
2013-11-24 00:15:00,22.1,19.1,30.39,NNW,343,0.0,-999.0,88,0.00,,,0.00,0,WeatherHawk,2013-11-24 08:15:00,
2013-11-24 00:20:00,21.9,19.4,30.39,NNW,343,0.0,-999.0,90,0.00,,,0.00,0,WeatherHawk,2013-11-24 08:20:00,
2013-11-24 00:25:00,22.2,20.5,30.39,NNW,343,0.0,-999.0,93,0.00,,,0.00,0,WeatherHawk,2013-11-24 08:25:00,
2013-11-24 00:30:00,21.3,19.6,30.39,SSE,147,0.0,-999.0,93,0.00,,,0.00,0,WeatherHawk,2013-11-24 08:30:00,
2013-11-24 00:35:00,22.0,20.8,30.39,SSE,147,0.0,-999.0,95,0.00,,,0.00,1,WeatherHawk,2013-11-24 08:35:00,
2013-11-24 00:40:00,21.9,20.5,30.39,North,8,0.0,-999.0,94,0.00,,,0.00,0,WeatherHawk,2013-11-24 08:40:00,
2013-11-24 00:45:00,21.9,20.2,30.38,NNE,20,2.0,-999.0,93,0.00,,,0.00,0,WeatherHawk,2013-11-24 08:45:00,
2013-11-24 00:50:00,21.7,19.7,30.38,North,0,1.0,-999.0,92,0.00,,,0.00,0,WeatherHawk,2013-11-24 08:50:00,
2013-11-24 00:55:00,21.4,19.4,30.38,NNE,28,3.0,-999.0,92,0.00,,,0.00,0,WeatherHawk,2013-11-24 08:55:00,
2013-11-24 01:00:00,21.9,19.7,30.37,ESE,109,0.0,-999.0,91,0.00,,,0.00,0,WeatherHawk,2013-11-24 09:00:00,
2013-11-24 01:05:00,21.9,20.0,30.38,North,351,0.0,-999.0,92,0.00,,,0.00,0,WeatherHawk,2013-11-24 09:05:00,
2013-11-24 01:10:00,21.2,19.3,30.38,NNE,27,0.0,-999.0,92,0.00,,,0.00,1,WeatherHawk,2013-11-24 09:10:00,
2013-11-24 01:15:00,21.5,19.8,30.38,NNW,348,0.0,-999.0,93,0.00,,,0.00,0,WeatherHawk,2013-11-24 09:15:00,
2013-11-24 01:20:00,21.5,20.1,30.38,NE,37,0.0,-999.0,94,0.00,,,0.00,0,WeatherHawk,2013-11-24 09:20:00,
2013-11-24 01:25:00,21.4,20.2,30.38,NE,39,0.0,-999.0,95,0.00,,,0.00,0,WeatherHawk,2013-11-24 09:25:00,
2013-11-24 01:30:00,21.3,20.1,30.37,NNE,23,3.0,-999.0,95,0.00,,,0.00,0,WeatherHawk,2013-11-24 09:30:00,
2013-11-24 01:35:00,21.2,20.0,30.38,NNE,16,2.0,-999.0,95,0.00,,,0.00,0,WeatherHawk,2013-11-24 09:35:00,
2013-11-24 01:40:00,21.1,19.7,30.38,North,7,3.0,-999.0,94,0.00,,,0.00,0,WeatherHawk,2013-11-24 09:40:00,
2013-11-24 01:45:00,20.8,19.1,30.38,North,7,0.0,-999.0,93,0.00,,,0.00,0,WeatherHawk,2013-11-24 09:45:00,
2013-11-24 01:50:00,20.6,19.1,30.38,NNE,21,1.0,-999.0,94,0.00,,,0.00,0,WeatherHawk,2013-11-24 09:50:00,
2013-11-24 01:55:00,20.8,19.1,30.38,NNE,26,0.0,-999.0,93,0.00,,,0.00,0,WeatherHawk,2013-11-24 09:55:00,
2013-11-24 02:00:00,20.2,18.5,30.38,North,5,0.0,-999.0,93,0.00,,,0.00,0,WeatherHawk,2013-11-24 10:00:00,
2013-11-24 02:05:00,19.6,18.4,30.39,North,5,0.0,-999.0,95,0.00,,,0.00,1,WeatherHawk,2013-11-24 10:05:00,
2013-11-24 02:10:00,19.3,18.4,30.38,North,5,0.0,-999.0,96,0.00,,,0.00,0,WeatherHawk,2013-11-24 10:10:00,
2013-11-24 02:15:00,20.0,19.5,30.38,North,5,0.0,-999.0,98,0.00,,,0.00,1,WeatherHawk,2013-11-24 10:15:00,
2013-11-24 02:20:00,19.4,19.2,30.39,South,178,0.0,-999.0,99,0.00,,,0.00,0,WeatherHawk,2013-11-24 10:20:00,
2013-11-24 02:25:00,19.8,19.8,30.38,South,183,0.0,-999.0,100,0.00,,,0.00,0,WeatherHawk,2013-11-24 10:25:00,
2013-11-24 02:30:00,19.8,19.8,30.38,SSE,167,1.0,-999.0,100,0.00,,,0.00,0,WeatherHawk,2013-11-24 10:30:00,
2013-11-24 02:35:00,19.8,19.8,30.39,SSE,160,1.0,-999.0,100,0.00,,,0.00,0,WeatherHawk,2013-11-24 10:35:00,
2013-11-24 02:40:00,19.4,19.4,30.38,SSE,149,2.0,-999.0,100,0.00,,,0.00,0,WeatherHawk,2013-11-24 10:40:00,
2013-11-24 02:45:00,19.4,18.7,30.38,SSE,155,0.0,-999.0,97,0.00,,,0.00,0,WeatherHawk,2013-11-24 10:45:00,
2013-11-24 02:50:00,19.3,17.9,30.38,SSE,155,0.0,-999.0,94,0.00,,,0.00,0,WeatherHawk,2013-11-24 10:50:00,
2013-11-24 02:55:00,19.0,17.3,30.38,SSE,155,0.0,-999.0,93,0.00,,,0.00,0,WeatherHawk,2013-11-24 10:55:00,
2013-11-24 03:00:00,18.9,17.7,30.38,SSE,155,0.0,-999.0,95,0.00,,,0.00,1,WeatherHawk,2013-11-24 11:00:00,
2013-11-24 03:05:00,19.2,18.3,30.38,SSE,155,0.0,-999.0,96,0.00,,,0.00,0,WeatherHawk,2013-11-24 11:05:00,
2013-11-24 03:10:00,19.1,18.8,30.38,NNW,334,0.0,-999.0,99,0.00,,,0.00,0,WeatherHawk,2013-11-24 11:10:00,
2013-11-24 03:15:00,19.4,19.4,30.37,NNE,30,0.0,-999.0,100,0.00,,,0.00,0,WeatherHawk,2013-11-24 11:15:00,
2013-11-24 03:20:00,19.4,19.4,30.38,NE,48,0.0,-999.0,100,0.00,,,0.00,0,WeatherHawk,2013-11-24 11:20:00,
2013-11-24 03:25:00,19.7,19.7,30.37,NNE,20,0.0,-999.0,100,0.00,,,0.00,1,WeatherHawk,2013-11-24 11:25:00,
2013-11-24 03:30:00,20.3,20.3,30.37,East,86,0.0,-999.0,100,0.00,,,0.00,0,WeatherHawk,2013-11-24 11:30:00,
2013-11-24 03:35:00,20.1,20.1,30.37,ENE,58,0.0,-999.0,100,0.00,,,0.00,0,WeatherHawk,2013-11-24 11:35:00,
2013-11-24 03:40:00,20.0,20.0,30.37,NNE,15,3.0,-999.0,100,0.00,,,0.00,0,WeatherHawk,2013-11-24 11:40:00,
2013-11-24 03:45:00,20.0,20.0,30.37,NE,39,0.0,-999.0,100,0.00,,,0.00,1,WeatherHawk,2013-11-24 11:45:00,
2013-11-24 03:50:00,20.0,20.0,30.37,NNW,348,1.0,-999.0,100,0.00,,,0.00,0,WeatherHawk,2013-11-24 11:50:00,
2013-11-24 03:55:00,19.2,19.2,30.37,North,4,0.0,-999.0,100,0.00,,,0.00,0,WeatherHawk,2013-11-24 11:55:00,
2013-11-24 04:00:00,19.2,19.2,30.37,East,97,0.0,-999.0,100,0.00,,,0.00,0,WeatherHawk,2013-11-24 12:00:00,
2013-11-24 04:05:00,19.3,19.3,30.37,East,97,0.0,-999.0,100,0.00,,,0.00,0,WeatherHawk,2013-11-24 12:05:00,
2013-11-24 04:10:00,19.6,19.6,30.37,NE,42,0.0,-999.0,100,0.00,,,0.00,0,WeatherHawk,2013-11-24 12:10:00,
2013-11-24 04:15:00,19.8,19.8,30.37,NE,42,0.0,-999.0,100,0.00,,,0.00,0,WeatherHawk,2013-11-24 12:15:00,
2013-11-24 04:20:00,18.3,18.3,30.38,NE,42,0.0,-999.0,100,0.00,,,0.00,1,WeatherHawk,2013-11-24 12:20:00,
2013-11-24 04:25:00,18.5,18.5,30.38,NE,42,0.0,-999.0,100,0.00,,,0.00,1,WeatherHawk,2013-11-24 12:25:00,
2013-11-24 04:30:00,18.6,18.6,30.38,South,177,0.0,-999.0,100,0.00,,,0.00,0,WeatherHawk,2013-11-24 12:30:00,
2013-11-24 04:35:00,19.5,19.5,30.38,South,184,0.0,-999.0,100,0.00,,,0.00,0,WeatherHawk,2013-11-24 12:35:00,
2013-11-24 04:40:00,18.4,18.4,30.38,WNW,287,0.0,-999.0,100,0.00,,,0.00,0,WeatherHawk,2013-11-24 12:40:00,
2013-11-24 04:45:00,19.4,19.4,30.38,NNE,28,0.0,-999.0,100,0.00,,,0.00,0,WeatherHawk,2013-11-24 12:45:00,
2013-11-24 04:50:00,19.5,19.5,30.38,NE,39,3.0,-999.0,100,0.00,,,0.00,0,WeatherHawk,2013-11-24 12:50:00,
2013-11-24 04:55:00,19.2,19.2,30.38,NNE,18,0.0,-999.0,100,0.00,,,0.00,1,WeatherHawk,2013-11-24 12:55:00,
2013-11-24 05:00:00,19.8,19.8,30.38,NNE,15,2.0,-999.0,100,0.00,,,0.00,0,WeatherHawk,2013-11-24 13:00:00,
2013-11-24 05:05:00,19.7,19.7,30.37,NE,49,0.0,-999.0,100,0.00,,,0.00,0,WeatherHawk,2013-11-24 13:05:00,
2013-11-24 05:10:00,19.7,19.7,30.37,NE,36,0.0,-999.0,100,0.00,,,0.00,0,WeatherHawk,2013-11-24 13:10:00,
2013-11-24 05:15:00,19.8,19.8,30.37,NE,34,0.0,-999.0,100,0.00,,,0.00,0,WeatherHawk,2013-11-24 13:15:00,
2013-11-24 05:20:00,19.6,19.6,30.37,NE,41,3.0,-999.0,100,0.00,,,0.00,0,WeatherHawk,2013-11-24 13:20:00,
2013-11-24 05:25:00,19.2,19.2,30.37,NW,306,0.0,-999.0,100,0.00,,,0.00,0,WeatherHawk,2013-11-24 13:25:00,
2013-11-24 05:30:00,18.0,18.0,30.36,NW,306,0.0,-999.0,100,0.00,,,0.00,0,WeatherHawk,2013-11-24 13:30:00,
2013-11-24 05:35:00,18.1,18.1,30.36,NW,306,0.0,-999.0,100,0.00,,,0.00,0,WeatherHawk,2013-11-24 13:35:00,
2013-11-24 05:40:00,17.9,17.9,30.36,West,268,0.0,-999.0,100,0.00,,,0.00,0,WeatherHawk,2013-11-24 13:40:00,
2013-11-24 05:45:00,18.7,18.7,30.37,West,268,0.0,-999.0,100,0.00,,,0.00,0,WeatherHawk,2013-11-24 13:45:00,
2013-11-24 05:50:00,18.7,18.7,30.37,West,268,0.0,-999.0,100,0.00,,,0.00,0,WeatherHawk,2013-11-24 13:50:00,
2013-11-24 05:55:00,18.1,18.1,30.37,SE,146,0.0,-999.0,100,0.00,,,0.00,0,WeatherHawk,2013-11-24 13:55:00,
2013-11-24 06:00:00,17.3,17.3,30.37,SE,145,0.0,-999.0,100,0.00,,,0.00,0,WeatherHawk,2013-11-24 14:00:00,
2013-11-24 06:05:00,17.3,17.3,30.36,SE,146,0.0,-999.0,100,0.00,,,0.00,0,WeatherHawk,2013-11-24 14:05:00,
2013-11-24 06:10:00,17.3,17.1,30.36,SE,146,0.0,-999.0,99,0.00,,,0.00,0,WeatherHawk,2013-11-24 14:10:00,
2013-11-24 06:15:00,17.7,17.3,30.37,SE,146,0.0,-999.0,98,0.00,,,0.00,0,WeatherHawk,2013-11-24 14:15:00,
2013-11-24 06:20:00,17.9,17.7,30.37,SE,146,0.0,-999.0,99,0.00,,,0.00,0,WeatherHawk,2013-11-24 14:20:00,
2013-11-24 06:25:00,17.9,17.9,30.37,SE,146,0.0,-999.0,100,0.00,,,0.00,0,WeatherHawk,2013-11-24 14:25:00,
2013-11-24 06:30:00,17.5,17.5,30.37,SE,146,0.0,-999.0,100,0.00,,,0.00,0,WeatherHawk,2013-11-24 14:30:00,
2013-11-24 06:35:00,17.2,17.2,30.37,SE,146,0.0,-999.0,100,0.00,,,0.00,0,WeatherHawk,2013-11-24 14:35:00,
2013-11-24 06:40:00,18.0,18.0,30.37,SE,146,0.0,-999.0,100,0.00,,,0.00,0,WeatherHawk,2013-11-24 14:40:00,
2013-11-24 06:45:00,17.4,17.4,30.37,SE,146,0.0,-999.0,100,0.00,,,0.00,0,WeatherHawk,2013-11-24 14:45:00,
2013-11-24 06:50:00,17.2,17.0,30.37,ESE,113,0.0,-999.0,99,0.00,,,0.00,0,WeatherHawk,2013-11-24 14:50:00,
2013-11-24 06:55:00,17.2,17.0,30.37,ESE,113,0.0,-999.0,99,0.00,,,0.00,0,WeatherHawk,2013-11-24 14:55:00,
2013-11-24 07:00:00,17.3,17.1,30.37,ESE,113,0.0,-999.0,99,0.00,,,0.00,0,WeatherHawk,2013-11-24 15:00:00,
2013-11-24 07:05:00,17.0,16.8,30.37,ESE,113,0.0,-999.0,99,0.00,,,0.00,0,WeatherHawk,2013-11-24 15:05:00,
2013-11-24 07:10:00,17.6,17.2,30.37,ESE,113,0.0,-999.0,98,0.00,,,0.00,2,WeatherHawk,2013-11-24 15:10:00,
2013-11-24 07:15:00,17.9,17.5,30.37,ESE,113,0.0,-999.0,98,0.00,,,0.00,3,WeatherHawk,2013-11-24 15:15:00,
2013-11-24 07:20:00,17.3,16.9,30.37,ESE,113,0.0,-999.0,98,0.00,,,0.00,5,WeatherHawk,2013-11-24 15:20:00,
2013-11-24 07:25:00,17.6,17.4,30.37,ESE,113,0.0,-999.0,99,0.00,,,0.00,5,WeatherHawk,2013-11-24 15:25:00,
2013-11-24 07:30:00,17.5,17.0,30.37,ESE,113,0.0,-999.0,98,0.00,,,0.00,8,WeatherHawk,2013-11-24 15:30:00,
2013-11-24 07:35:00,17.3,16.8,30.37,SE,141,0.0,-999.0,98,0.00,,,0.00,9,WeatherHawk,2013-11-24 15:35:00,
2013-11-24 07:40:00,17.2,16.5,30.37,SE,141,0.0,-999.0,97,0.00,,,0.00,11,WeatherHawk,2013-11-24 15:40:00,
2013-11-24 07:45:00,18.1,17.4,30.38,SE,141,0.0,-999.0,97,0.00,,,0.00,12,WeatherHawk,2013-11-24 15:45:00,
2013-11-24 07:50:00,17.4,16.7,30.38,SE,141,0.0,-999.0,97,0.00,,,0.00,12,WeatherHawk,2013-11-24 15:50:00,
2013-11-24 07:55:00,17.7,17.0,30.38,SE,141,0.0,-999.0,97,0.00,,,0.00,12,WeatherHawk,2013-11-24 15:55:00,
2013-11-24 08:00:00,17.3,16.6,30.38,SE,141,0.0,-999.0,97,0.00,,,0.00,14,WeatherHawk,2013-11-24 16:00:00,
2013-11-24 08:05:00,17.5,16.8,30.38,SE,141,0.0,-999.0,97,0.00,,,0.00,15,WeatherHawk,2013-11-24 16:05:00,
2013-11-24 08:10:00,17.9,17.0,30.38,SE,145,0.0,-999.0,96,0.00,,,0.00,16,WeatherHawk,2013-11-24 16:10:00,
2013-11-24 08:15:00,17.8,15.6,30.38,SE,133,3.0,-999.0,91,0.00,,,0.00,15,WeatherHawk,2013-11-24 16:15:00,
2013-11-24 08:20:00,18.4,15.0,30.37,SSE,158,3.0,-999.0,86,0.00,,,0.00,17,WeatherHawk,2013-11-24 16:20:00,
2013-11-24 08:25:00,18.0,14.0,30.37,SSW,199,0.0,-999.0,84,0.00,,,0.00,17,WeatherHawk,2013-11-24 16:25:00,
2013-11-24 08:30:00,18.6,16.1,30.37,SSW,199,0.0,-999.0,90,0.00,,,0.00,17,WeatherHawk,2013-11-24 16:30:00,
2013-11-24 08:35:00,18.6,17.0,30.37,SSW,199,0.0,-999.0,93,0.00,,,0.00,17,WeatherHawk,2013-11-24 16:35:00,
2013-11-24 08:40:00,18.8,17.6,30.36,SSW,199,0.0,-999.0,95,0.00,,,0.00,18,WeatherHawk,2013-11-24 16:40:00,
2013-11-24 08:45:00,18.7,17.5,30.37,SSW,199,0.0,-999.0,95,0.00,,,0.00,18,WeatherHawk,2013-11-24 16:45:00,
2013-11-24 08:50:00,19.2,18.5,30.37,SSW,199,0.0,-999.0,97,0.00,,,0.00,19,WeatherHawk,2013-11-24 16:50:00,
2013-11-24 08:55:00,19.6,18.9,30.36,NNE,19,0.0,-999.0,97,0.00,,,0.00,22,WeatherHawk,2013-11-24 16:55:00,
2013-11-24 09:00:00,22.2,21.8,30.37,NNE,19,0.0,-999.0,98,0.00,,,0.00,99,WeatherHawk,2013-11-24 17:00:00,
2013-11-24 09:05:00,21.8,21.6,30.37,NNE,19,0.0,-999.0,99,0.00,,,0.00,70,WeatherHawk,2013-11-24 17:05:00,
2013-11-24 09:10:00,23.2,22.5,30.37,NNE,19,0.0,-999.0,97,0.00,,,0.00,154,WeatherHawk,2013-11-24 17:10:00,
2013-11-24 09:15:00,24.6,21.8,30.36,NNE,19,0.0,-999.0,89,0.00,,,0.00,159,WeatherHawk,2013-11-24 17:15:00,
2013-11-24 09:20:00,25.7,21.0,30.36,South,180,0.0,-999.0,82,0.00,,,0.00,164,WeatherHawk,2013-11-24 17:20:00,
2013-11-24 09:25:00,24.9,16.5,30.35,ENE,69,0.0,-999.0,70,0.00,,,0.00,169,WeatherHawk,2013-11-24 17:25:00,
2013-11-24 09:30:00,23.9,14.9,30.35,North,5,0.0,-999.0,68,0.00,,,0.00,175,WeatherHawk,2013-11-24 17:30:00,
2013-11-24 09:35:00,31.7,25.0,30.34,North,5,0.0,-999.0,76,0.00,,,0.00,179,WeatherHawk,2013-11-24 17:35:00,
2013-11-24 09:40:00,27.6,16.3,30.34,North,5,0.0,-999.0,62,0.00,,,0.00,201,WeatherHawk,2013-11-24 17:40:00,
2013-11-24 09:45:00,23.6,11.0,30.34,West,261,0.0,-999.0,58,0.00,,,0.00,262,WeatherHawk,2013-11-24 17:45:00,
2013-11-24 09:50:00,24.3,13.1,30.34,West,259,0.0,-999.0,62,0.00,,,0.00,268,WeatherHawk,2013-11-24 17:50:00,
2013-11-24 09:55:00,27.7,16.4,30.34,WSW,258,0.0,-999.0,62,0.00,,,0.00,273,WeatherHawk,2013-11-24 17:55:00,
2013-11-24 10:00:00,28.1,12.8,30.33,SW,231,0.0,-999.0,52,0.00,,,0.00,276,WeatherHawk,2013-11-24 18:00:00,
2013-11-24 10:05:00,29.8,16.5,30.34,SW,231,0.0,-999.0,57,0.00,,,0.00,278,WeatherHawk,2013-11-24 18:05:00,
2013-11-24 10:15:00,30.6,16.0,30.34,SSW,201,0.0,-999.0,54,0.00,,,0.00,287,WeatherHawk,2013-11-24 18:15:00,
2013-11-24 10:20:00,29.0,14.0,30.33,SSW,201,0.0,-999.0,53,0.00,,,0.00,291,WeatherHawk,2013-11-24 18:20:00,
2013-11-24 10:25:00,31.1,12.3,30.33,SSW,201,0.0,-999.0,45,0.00,,,0.00,293,WeatherHawk,2013-11-24 18:25:00,
2013-11-24 10:30:00,34.4,15.3,30.33,NNW,348,0.0,-999.0,45,0.00,,,0.00,297,WeatherHawk,2013-11-24 18:30:00,
2013-11-24 10:35:00,29.2,10.0,30.33,NW,323,0.0,-999.0,44,0.00,,,0.00,300,WeatherHawk,2013-11-24 18:35:00,
2013-11-24 10:40:00,29.6,10.4,30.33,WNW,290,0.0,-999.0,44,0.00,,,0.00,303,WeatherHawk,2013-11-24 18:40:00,
2013-11-24 10:45:00,36.8,18.0,30.32,West,273,0.0,-999.0,46,0.00,,,0.00,305,WeatherHawk,2013-11-24 18:45:00,
2013-11-24 10:50:00,33.5,12.4,30.32,SW,223,0.0,-999.0,41,0.00,,,0.00,307,WeatherHawk,2013-11-24 18:50:00,
2013-11-24 10:55:00,28.8,8.1,30.31,NNW,332,2.0,-999.0,41,0.00,,,0.00,307,WeatherHawk,2013-11-24 18:55:00,
2013-11-24 11:00:00,35.5,15.7,30.31,NNE,33,0.0,-999.0,44,0.00,,,0.00,308,WeatherHawk,2013-11-24 19:00:00,
2013-11-24 11:05:00,31.4,11.5,30.31,NNE,28,1.0,-999.0,43,0.00,,,0.00,311,WeatherHawk,2013-11-24 19:05:00,
2013-11-24 11:10:00,31.5,10.0,30.31,NE,34,2.0,-999.0,40,0.00,,,0.00,313,WeatherHawk,2013-11-24 19:10:00,
2013-11-24 11:15:00,31.1,10.8,30.30,NE,44,4.0,-999.0,42,0.00,,,0.00,314,WeatherHawk,2013-11-24 19:15:00,
2013-11-24 11:20:00,31.6,7.8,30.30,NE,42,4.0,-999.0,36,0.00,,,0.00,317,WeatherHawk,2013-11-24 19:20:00,
2013-11-24 11:25:00,33.4,8.7,30.30,NE,55,3.0,-999.0,35,0.00,,,0.00,318,WeatherHawk,2013-11-24 19:25:00,
2013-11-24 11:30:00,32.7,7.5,30.29,ENE,77,4.0,-999.0,34,0.00,,,0.00,320,WeatherHawk,2013-11-24 19:30:00,
2013-11-24 11:35:00,33.8,7.7,30.30,NNE,30,3.0,-999.0,33,0.00,,,0.00,320,WeatherHawk,2013-11-24 19:35:00,
2013-11-24 11:40:00,34.5,7.7,30.29,NNE,21,3.0,-999.0,32,0.00,,,0.00,320,WeatherHawk,2013-11-24 19:40:00,
2013-11-24 11:45:00,34.9,7.3,30.29,NNE,19,1.0,-999.0,31,0.00,,,0.00,322,WeatherHawk,2013-11-24 19:45:00,
2013-11-24 11:50:00,33.8,5.7,30.29,NNE,22,1.0,-999.0,30,0.00,,,0.00,322,WeatherHawk,2013-11-24 19:50:00,
2013-11-24 11:55:00,33.0,2.7,30.28,NNE,30,3.0,-999.0,27,0.00,,,0.00,320,WeatherHawk,2013-11-24 19:55:00,
2013-11-24 12:00:00,33.7,3.3,30.28,NNE,27,0.0,-999.0,27,0.00,,,0.00,321,WeatherHawk,2013-11-24 20:00:00,
2013-11-24 12:05:00,35.1,3.7,30.28,NE,55,2.0,-999.0,26,0.00,,,0.00,320,WeatherHawk,2013-11-24 20:05:00,
2013-11-24 12:10:00,34.6,2.5,30.28,ENE,65,3.0,-999.0,25,0.00,,,0.00,320,WeatherHawk,2013-11-24 20:10:00,
2013-11-24 12:15:00,35.4,2.2,30.27,ENE,60,2.0,-999.0,24,0.00,,,0.00,319,WeatherHawk,2013-11-24 20:15:00,
2013-11-24 12:20:00,35.2,-0.8,30.27,ENE,60,4.0,-999.0,21,0.00,,,0.00,318,WeatherHawk,2013-11-24 20:20:00,
2013-11-24 12:25:00,36.6,0.4,30.26,NE,53,3.0,-999.0,21,0.00,,,0.00,315,WeatherHawk,2013-11-24 20:25:00,
2013-11-24 12:30:00,37.8,2.4,30.26,NE,40,2.0,-999.0,22,0.00,,,0.00,313,WeatherHawk,2013-11-24 20:30:00,
2013-11-24 12:35:00,38.4,-1.3,30.26,NE,54,0.0,-999.0,18,0.00,,,0.00,311,WeatherHawk,2013-11-24 20:35:00,
2013-11-24 12:40:00,38.1,-0.5,30.26,NNE,33,3.0,-999.0,19,0.00,,,0.00,308,WeatherHawk,2013-11-24 20:40:00,
2013-11-24 12:45:00,36.8,-0.4,30.26,East,87,3.0,-999.0,20,0.00,,,0.00,305,WeatherHawk,2013-11-24 20:45:00,
2013-11-24 12:50:00,37.6,-0.9,30.25,North,11,2.0,-999.0,19,0.00,,,0.00,303,WeatherHawk,2013-11-24 20:50:00,
2013-11-24 12:55:00,36.4,-3.0,30.25,NE,55,5.0,-999.0,18,0.00,,,0.00,299,WeatherHawk,2013-11-24 20:55:00,
2013-11-24 13:00:00,38.1,-0.5,30.25,NE,40,5.0,-999.0,19,0.00,,,0.00,295,WeatherHawk,2013-11-24 21:00:00,
2013-11-24 13:05:00,37.0,-1.4,30.24,NE,54,5.0,-999.0,19,0.00,,,0.00,291,WeatherHawk,2013-11-24 21:05:00,
2013-11-24 13:10:00,37.8,-7.0,30.24,ENE,61,5.0,-999.0,14,0.00,,,0.00,287,WeatherHawk,2013-11-24 21:10:00,
2013-11-24 13:15:00,38.3,-3.9,30.24,NE,44,4.0,-999.0,16,0.00,,,0.00,281,WeatherHawk,2013-11-24 21:15:00,
2013-11-24 13:20:00,39.2,-0.7,30.24,NE,35,4.0,-999.0,18,0.00,,,0.00,278,WeatherHawk,2013-11-24 21:20:00,
2013-11-24 13:25:00,38.5,-5.1,30.24,East,85,4.0,-999.0,15,0.00,,,0.00,273,WeatherHawk,2013-11-24 21:25:00,
2013-11-24 13:30:00,39.3,-1.8,30.24,ENE,61,3.0,-999.0,17,0.00,,,0.00,267,WeatherHawk,2013-11-24 21:30:00,
2013-11-24 13:35:00,39.0,-6.1,30.24,NE,50,3.0,-999.0,14,0.00,,,0.00,261,WeatherHawk,2013-11-24 21:35:00,
2013-11-24 13:40:00,39.3,-9.0,30.24,ENE,58,0.0,-999.0,12,0.00,,,0.00,256,WeatherHawk,2013-11-24 21:40:00,
2013-11-24 13:45:00,39.9,-2.6,30.24,NE,47,1.0,-999.0,16,0.00,,,0.00,249,WeatherHawk,2013-11-24 21:45:00,
2013-11-24 13:50:00,41.1,-5.9,30.24,NNW,341,2.0,-999.0,13,0.00,,,0.00,244,WeatherHawk,2013-11-24 21:50:00,
2013-11-24 13:55:00,40.4,-5.0,30.24,North,8,0.0,-999.0,14,0.00,,,0.00,237,WeatherHawk,2013-11-24 21:55:00,
2013-11-24 14:00:00,39.3,-3.1,30.24,ENE,58,4.0,-999.0,16,0.00,,,0.00,232,WeatherHawk,2013-11-24 22:00:00,
2013-11-24 14:05:00,39.9,-8.5,30.24,NE,52,1.0,-999.0,12,0.00,,,0.00,226,WeatherHawk,2013-11-24 22:05:00,
2013-11-24 14:10:00,40.2,-8.3,30.24,NNE,30,1.0,-999.0,12,0.00,,,0.00,218,WeatherHawk,2013-11-24 22:10:00,
2013-11-24 14:15:00,39.6,-2.8,30.24,NNE,18,2.0,-999.0,16,0.00,,,0.00,210,WeatherHawk,2013-11-24 22:15:00,
2013-11-24 14:20:00,39.6,-1.5,30.24,NE,47,4.0,-999.0,17,0.00,,,0.00,203,WeatherHawk,2013-11-24 22:20:00,
2013-11-24 14:25:00,40.3,-5.1,30.24,NE,38,4.0,-999.0,14,0.00,,,0.00,196,WeatherHawk,2013-11-24 22:25:00,
2013-11-24 14:30:00,40.1,-5.2,30.24,North,11,3.0,-999.0,14,0.00,,,0.00,183,WeatherHawk,2013-11-24 22:30:00,
2013-11-24 14:35:00,40.3,-8.2,30.25,NNE,29,3.0,-999.0,12,0.00,,,0.00,180,WeatherHawk,2013-11-24 22:35:00,
2013-11-24 14:40:00,40.3,-3.6,30.25,NE,38,2.0,-999.0,15,0.00,,,0.00,173,WeatherHawk,2013-11-24 22:40:00,
2013-11-24 14:45:00,41.0,-4.5,30.25,NNE,32,0.0,-999.0,14,0.00,,,0.00,165,WeatherHawk,2013-11-24 22:45:00,
2013-11-24 14:50:00,40.9,-6.1,30.24,NNE,30,0.0,-999.0,13,0.00,,,0.00,156,WeatherHawk,2013-11-24 22:50:00,
2013-11-24 14:55:00,40.2,-2.3,30.25,North,351,3.0,-999.0,16,0.00,,,0.00,148,WeatherHawk,2013-11-24 22:55:00,
2013-11-24 15:00:00,40.4,-3.6,30.25,NE,39,0.0,-999.0,15,0.00,,,0.00,139,WeatherHawk,2013-11-24 23:00:00,
2013-11-24 15:05:00,39.9,-8.5,30.25,ENE,58,1.0,-999.0,12,0.00,,,0.00,133,WeatherHawk,2013-11-24 23:05:00,
2013-11-24 15:10:00,40.3,-5.0,30.25,NE,38,0.0,-999.0,14,0.00,,,0.00,123,WeatherHawk,2013-11-24 23:10:00,
2013-11-24 15:15:00,41.6,-5.6,30.25,NE,34,0.0,-999.0,13,0.00,,,0.00,115,WeatherHawk,2013-11-24 23:15:00,
2013-11-24 15:20:00,42.0,0.4,30.25,NE,41,0.0,-999.0,17,0.00,,,0.00,109,WeatherHawk,2013-11-24 23:20:00,
2013-11-24 15:25:00,40.5,-9.8,30.25,East,79,2.0,-999.0,11,0.00,,,0.00,99,WeatherHawk,2013-11-24 23:25:00,
2013-11-24 15:30:00,40.5,-8.1,30.25,ENE,57,1.0,-999.0,12,0.00,,,0.00,91,WeatherHawk,2013-11-24 23:30:00,
2013-11-24 15:35:00,40.6,-3.4,30.26,NE,56,0.0,-999.0,15,0.00,,,0.00,84,WeatherHawk,2013-11-24 23:35:00,
2013-11-24 15:40:00,40.3,-5.0,30.25,NNE,32,2.0,-999.0,14,0.00,,,0.00,77,WeatherHawk,2013-11-24 23:40:00,
2013-11-24 15:45:00,40.7,-2.0,30.26,North,350,0.0,-999.0,16,0.00,,,0.00,68,WeatherHawk,2013-11-24 23:45:00,
2013-11-24 15:50:00,40.2,-3.7,30.26,NNE,31,0.0,-999.0,15,0.00,,,0.00,60,WeatherHawk,2013-11-24 23:50:00,
2013-11-24 15:55:00,40.1,-3.8,30.26,NNW,341,0.0,-999.0,15,0.00,,,0.00,52,WeatherHawk,2013-11-24 23:55:00,
2013-11-24 16:00:00,40.0,-5.3,30.26,NNE,22,0.0,-999.0,14,0.00,,,0.00,44,WeatherHawk,2013-11-25 00:00:00,
2013-11-24 16:05:00,39.8,-4.0,30.26,NNE,22,0.0,-999.0,15,0.00,,,0.00,35,WeatherHawk,2013-11-25 00:05:00,
2013-11-24 16:10:00,39.4,-1.7,30.26,NNE,22,0.0,-999.0,17,0.00,,,0.00,10,WeatherHawk,2013-11-25 00:10:00,
2013-11-24 16:15:00,39.1,0.4,30.27,NNE,22,0.0,-999.0,19,0.00,,,0.00,9,WeatherHawk,2013-11-25 00:15:00,
2013-11-24 16:20:00,39.3,-1.8,30.27,NNE,22,0.0,-999.0,17,0.00,,,0.00,8,WeatherHawk,2013-11-25 00:20:00,
2013-11-24 16:25:00,39.4,0.6,30.27,NE,56,2.0,-999.0,19,0.00,,,0.00,5,WeatherHawk,2013-11-25 00:25:00,
2013-11-24 16:30:00,39.3,0.5,30.27,ENE,70,0.0,-999.0,19,0.00,,,0.00,3,WeatherHawk,2013-11-25 00:30:00,
2013-11-24 16:35:00,39.3,1.6,30.28,ENE,70,0.0,-999.0,20,0.00,,,0.00,2,WeatherHawk,2013-11-25 00:35:00,
2013-11-24 16:40:00,39.0,-2.1,30.28,ENE,71,2.0,-999.0,17,0.00,,,0.00,2,WeatherHawk,2013-11-25 00:40:00,
2013-11-24 16:45:00,38.8,-3.5,30.28,East,97,1.0,-999.0,16,0.00,,,0.00,0,WeatherHawk,2013-11-25 00:45:00,
2013-11-24 16:50:00,38.5,-5.1,30.28,ENE,76,2.0,-999.0,15,0.00,,,0.00,0,WeatherHawk,2013-11-25 00:50:00,
2013-11-24 16:55:00,39.0,0.3,30.28,East,85,2.0,-999.0,19,0.00,,,0.00,2,WeatherHawk,2013-11-25 00:55:00,
2013-11-24 17:00:00,38.8,-4.8,30.29,East,96,2.0,-999.0,15,0.00,,,0.00,1,WeatherHawk,2013-11-25 01:00:00,
2013-11-24 17:05:00,39.0,-0.8,30.29,East,92,2.0,-999.0,18,0.00,,,0.00,0,WeatherHawk,2013-11-25 01:05:00,
2013-11-24 17:10:00,35.4,-2.7,30.29,East,92,0.0,-999.0,19,0.00,,,0.00,0,WeatherHawk,2013-11-25 01:10:00,
2013-11-24 17:15:00,36.2,1.0,30.29,NE,39,0.0,-999.0,22,0.00,,,0.00,0,WeatherHawk,2013-11-25 01:15:00,
2013-11-24 17:20:00,37.2,2.8,30.29,NE,39,0.0,-999.0,23,0.00,,,0.00,0,WeatherHawk,2013-11-25 01:20:00,
2013-11-24 17:25:00,36.9,3.5,30.29,SE,129,0.0,-999.0,24,0.00,,,0.00,0,WeatherHawk,2013-11-25 01:25:00,
2013-11-24 17:30:00,35.9,5.2,30.29,SE,129,0.0,-999.0,27,0.00,,,0.00,0,WeatherHawk,2013-11-25 01:30:00,
2013-11-24 17:35:00,35.0,6.0,30.30,SE,129,0.0,-999.0,29,0.00,,,0.00,0,WeatherHawk,2013-11-25 01:35:00,
2013-11-24 17:40:00,36.5,8.8,30.30,SE,129,0.0,-999.0,31,0.00,,,0.00,0,WeatherHawk,2013-11-25 01:40:00,
2013-11-24 17:45:00,34.7,9.3,30.30,SE,129,0.0,-999.0,34,0.00,,,0.00,0,WeatherHawk,2013-11-25 01:45:00,
2013-11-24 17:50:00,34.4,9.0,30.31,SE,129,0.0,-999.0,34,0.00,,,0.00,1,WeatherHawk,2013-11-25 01:50:00,
2013-11-24 17:55:00,33.1,9.7,30.31,SE,129,0.0,-999.0,37,0.00,,,0.00,0,WeatherHawk,2013-11-25 01:55:00,
2013-11-24 18:00:00,34.4,10.8,30.31,SE,129,0.0,-999.0,37,0.00,,,0.00,0,WeatherHawk,2013-11-25 02:00:00,
2013-11-24 18:05:00,35.3,16.6,30.31,NNE,32,2.0,-999.0,46,0.00,,,0.00,0,WeatherHawk,2013-11-25 02:05:00,
2013-11-24 18:10:00,35.2,17.0,30.31,NNE,32,0.0,-999.0,47,0.00,,,0.00,0,WeatherHawk,2013-11-25 02:10:00,
2013-11-24 18:15:00,35.8,15.6,30.31,ESE,109,0.0,-999.0,43,0.00,,,0.00,0,WeatherHawk,2013-11-25 02:15:00,
2013-11-24 18:20:00,35.8,12.7,30.31,ESE,109,0.0,-999.0,38,0.00,,,0.00,0,WeatherHawk,2013-11-25 02:20:00,
2013-11-24 18:25:00,34.9,11.9,30.31,ESE,109,0.0,-999.0,38,0.00,,,0.00,0,WeatherHawk,2013-11-25 02:25:00,
2013-11-24 18:30:00,32.7,11.6,30.32,ESE,109,0.0,-999.0,41,0.00,,,0.00,0,WeatherHawk,2013-11-25 02:30:00,
2013-11-24 18:35:00,34.4,15.3,30.32,ENE,58,1.0,-999.0,45,0.00,,,0.00,0,WeatherHawk,2013-11-25 02:35:00,
2013-11-24 18:40:00,33.1,11.4,30.32,ENE,58,0.0,-999.0,40,0.00,,,0.00,0,WeatherHawk,2013-11-25 02:40:00,
2013-11-24 18:45:00,34.0,15.4,30.32,NE,39,2.0,-999.0,46,0.00,,,0.00,1,WeatherHawk,2013-11-25 02:45:00,
2013-11-24 18:50:00,33.6,16.5,30.32,NE,39,0.0,-999.0,49,0.00,,,0.00,0,WeatherHawk,2013-11-25 02:50:00,
2013-11-24 18:55:00,33.6,17.0,30.32,NE,39,0.0,-999.0,50,0.00,,,0.00,0,WeatherHawk,2013-11-25 02:55:00,
2013-11-24 19:00:00,32.8,17.1,30.32,NNE,28,0.0,-999.0,52,0.00,,,0.00,0,WeatherHawk,2013-11-25 03:00:00,
2013-11-24 19:05:00,33.5,14.9,30.33,SE,138,2.0,-999.0,46,0.00,,,0.00,0,WeatherHawk,2013-11-25 03:05:00,
2013-11-24 19:10:00,32.8,11.1,30.32,SE,129,3.0,-999.0,40,0.00,,,0.00,0,WeatherHawk,2013-11-25 03:10:00,
2013-11-24 19:15:00,32.7,17.5,30.33,NE,35,0.0,-999.0,53,0.00,,,0.00,0,WeatherHawk,2013-11-25 03:15:00,
2013-11-24 19:20:00,32.4,18.1,30.33,NE,35,0.0,-999.0,55,0.00,,,0.00,1,WeatherHawk,2013-11-25 03:20:00,
2013-11-24 19:25:00,32.6,19.1,30.34,NE,35,0.0,-999.0,57,0.00,,,0.00,1,WeatherHawk,2013-11-25 03:25:00,
2013-11-24 19:30:00,32.1,17.3,30.34,NE,35,0.0,-999.0,54,0.00,,,0.00,0,WeatherHawk,2013-11-25 03:30:00,
2013-11-24 19:35:00,31.9,18.4,30.34,NE,35,0.0,-999.0,57,0.00,,,0.00,0,WeatherHawk,2013-11-25 03:35:00,
2013-11-24 19:40:00,32.5,18.1,30.34,NE,49,0.0,-999.0,55,0.00,,,0.00,0,WeatherHawk,2013-11-25 03:40:00,
2013-11-24 19:45:00,33.0,17.7,30.34,NE,49,0.0,-999.0,53,0.00,,,0.00,0,WeatherHawk,2013-11-25 03:45:00,
2013-11-24 19:50:00,32.4,17.2,30.35,NE,49,0.0,-999.0,53,0.00,,,0.00,0,WeatherHawk,2013-11-25 03:50:00,
2013-11-24 19:55:00,31.8,19.1,30.35,NE,49,0.0,-999.0,59,0.00,,,0.00,0,WeatherHawk,2013-11-25 03:55:00,
2013-11-24 20:00:00,32.9,18.1,30.35,East,97,0.0,-999.0,54,0.00,,,0.00,1,WeatherHawk,2013-11-25 04:00:00,
2013-11-24 20:05:00,30.8,16.6,30.35,East,97,0.0,-999.0,55,0.00,,,0.00,0,WeatherHawk,2013-11-25 04:05:00,
2013-11-24 20:10:00,32.4,18.5,30.35,East,97,0.0,-999.0,56,0.00,,,0.00,0,WeatherHawk,2013-11-25 04:10:00,
2013-11-24 20:15:00,32.7,16.1,30.35,SSE,154,0.0,-999.0,50,0.00,,,0.00,0,WeatherHawk,2013-11-25 04:15:00,
2013-11-24 20:20:00,31.0,15.1,30.35,NNW,345,0.0,-999.0,51,0.00,,,0.00,0,WeatherHawk,2013-11-25 04:20:00,
2013-11-24 20:25:00,30.3,17.3,30.36,NNW,345,0.0,-999.0,58,0.00,,,0.00,0,WeatherHawk,2013-11-25 04:25:00,
2013-11-24 20:30:00,30.5,18.3,30.35,SE,138,0.0,-999.0,60,0.00,,,0.00,0,WeatherHawk,2013-11-25 04:30:00,
2013-11-24 20:35:00,31.6,16.0,30.36,SE,138,0.0,-999.0,52,0.00,,,0.00,0,WeatherHawk,2013-11-25 04:35:00,
2013-11-24 20:40:00,30.9,17.9,30.36,SE,138,0.0,-999.0,58,0.00,,,0.00,0,WeatherHawk,2013-11-25 04:40:00,
2013-11-24 20:45:00,29.8,18.7,30.36,SE,138,0.0,-999.0,63,0.00,,,0.00,0,WeatherHawk,2013-11-25 04:45:00,
2013-11-24 20:50:00,29.0,19.8,30.36,SE,138,0.0,-999.0,68,0.00,,,0.00,0,WeatherHawk,2013-11-25 04:50:00,
2013-11-24 20:55:00,29.7,21.1,30.36,SE,138,0.0,-999.0,70,0.00,,,0.00,0,WeatherHawk,2013-11-25 04:55:00,
2013-11-24 21:00:00,30.9,19.5,30.37,SE,138,0.0,-999.0,62,0.00,,,0.00,1,WeatherHawk,2013-11-25 05:00:00,
2013-11-24 21:05:00,29.8,19.5,30.37,North,2,0.0,-999.0,65,0.00,,,0.00,0,WeatherHawk,2013-11-25 05:05:00,
2013-11-24 21:10:00,28.8,18.9,30.37,North,2,0.0,-999.0,66,0.00,,,0.00,0,WeatherHawk,2013-11-25 05:10:00,
2013-11-24 21:15:00,30.0,21.1,30.36,North,2,0.0,-999.0,69,0.00,,,0.00,0,WeatherHawk,2013-11-25 05:15:00,
2013-11-24 21:20:00,29.7,19.4,30.37,North,2,0.0,-999.0,65,0.00,,,0.00,0,WeatherHawk,2013-11-25 05:20:00,
2013-11-24 21:25:00,28.2,18.7,30.37,North,2,0.0,-999.0,67,0.00,,,0.00,0,WeatherHawk,2013-11-25 05:25:00,
2013-11-24 21:30:00,30.5,20.5,30.37,SE,131,0.0,-999.0,66,0.00,,,0.00,0,WeatherHawk,2013-11-25 05:30:00,
2013-11-24 21:35:00,30.6,17.2,30.37,SSW,197,0.0,-999.0,57,0.00,,,0.00,0,WeatherHawk,2013-11-25 05:35:00,
2013-11-24 21:40:00,30.6,16.8,30.37,SSW,194,0.0,-999.0,56,0.00,,,0.00,1,WeatherHawk,2013-11-25 05:40:00,
2013-11-24 21:45:00,31.5,17.6,30.37,SSW,194,0.0,-999.0,56,0.00,,,0.00,0,WeatherHawk,2013-11-25 05:45:00,
2013-11-24 21:50:00,28.9,16.0,30.37,SSW,194,0.0,-999.0,58,0.00,,,0.00,0,WeatherHawk,2013-11-25 05:50:00,
2013-11-24 21:55:00,27.4,17.9,30.37,SSW,194,0.0,-999.0,67,0.00,,,0.00,0,WeatherHawk,2013-11-25 05:55:00,
2013-11-24 22:00:00,30.6,19.5,30.37,SSW,194,0.0,-999.0,63,0.00,,,0.00,0,WeatherHawk,2013-11-25 06:00:00,
2013-11-24 22:10:00,29.1,19.9,30.38,SSW,194,0.0,-999.0,68,0.00,,,0.00,0,WeatherHawk,2013-11-25 06:10:00,
2013-11-24 22:15:00,28.8,20.9,30.38,SSW,194,0.0,-999.0,72,0.00,,,0.00,1,WeatherHawk,2013-11-25 06:15:00,
2013-11-24 22:20:00,28.8,21.6,30.38,SSW,194,0.0,-999.0,74,0.00,,,0.00,0,WeatherHawk,2013-11-25 06:20:00,
2013-11-24 22:25:00,29.0,21.4,30.39,East,93,0.0,-999.0,73,0.00,,,0.00,0,WeatherHawk,2013-11-25 06:25:00,
2013-11-24 22:30:00,29.0,20.8,30.39,North,9,0.0,-999.0,71,0.00,,,0.00,1,WeatherHawk,2013-11-25 06:30:00,
2013-11-24 22:35:00,30.0,19.0,30.38,ESE,112,0.0,-999.0,63,0.00,,,0.00,0,WeatherHawk,2013-11-25 06:35:00,
2013-11-24 22:40:00,30.5,17.5,30.38,ESE,114,0.0,-999.0,58,0.00,,,0.00,1,WeatherHawk,2013-11-25 06:40:00,
2013-11-24 22:45:00,28.9,16.8,30.38,WNW,301,0.0,-999.0,60,0.00,,,0.00,1,WeatherHawk,2013-11-25 06:45:00,
2013-11-24 22:50:00,28.2,19.0,30.38,WNW,301,0.0,-999.0,68,0.00,,,0.00,1,WeatherHawk,2013-11-25 06:50:00,
2013-11-24 22:55:00,27.2,18.8,30.39,WNW,301,0.0,-999.0,70,0.00,,,0.00,1,WeatherHawk,2013-11-25 06:55:00,
2013-11-24 23:00:00,28.0,20.5,30.38,WNW,301,0.0,-999.0,73,0.00,,,0.00,0,WeatherHawk,2013-11-25 07:00:00,
2013-11-24 23:05:00,28.2,21.0,30.38,WNW,301,0.0,-999.0,74,0.00,,,0.00,0,WeatherHawk,2013-11-25 07:05:00,
2013-11-24 23:10:00,29.4,19.1,30.38,WNW,301,0.0,-999.0,65,0.00,,,0.00,1,WeatherHawk,2013-11-25 07:10:00,
2013-11-24 23:15:00,27.0,17.5,30.38,WNW,301,0.0,-999.0,67,0.00,,,0.00,0,WeatherHawk,2013-11-25 07:15:00,
2013-11-24 23:20:00,27.5,19.7,30.39,WNW,301,0.0,-999.0,72,0.00,,,0.00,0,WeatherHawk,2013-11-25 07:20:00,
2013-11-24 23:25:00,28.1,20.6,30.39,WNW,301,0.0,-999.0,73,0.00,,,0.00,0,WeatherHawk,2013-11-25 07:25:00,
2013-11-24 23:30:00,27.5,20.6,30.39,North,2,0.0,-999.0,75,0.00,,,0.00,0,WeatherHawk,2013-11-25 07:30:00,
2013-11-24 23:35:00,26.7,20.4,30.39,North,2,0.0,-999.0,77,0.00,,,0.00,0,WeatherHawk,2013-11-25 07:35:00,
2013-11-24 23:40:00,26.0,20.7,30.40,North,2,0.0,-999.0,80,0.00,,,0.00,0,WeatherHawk,2013-11-25 07:40:00,
2013-11-24 23:45:00,27.3,23.4,30.39,SSE,159,0.0,-999.0,85,0.00,,,0.00,0,WeatherHawk,2013-11-25 07:45:00,
2013-11-24 23:50:00,27.3,20.4,30.40,SSE,157,0.0,-999.0,75,0.00,,,0.00,0,WeatherHawk,2013-11-25 07:50:00,